Weather Roundup
Issued by NWS Chicago, IL

Home | Current Version | Previous Version | Graphics & Text | Print | Product List | Glossary On
Versions: 1 2 3 4 5 6 7 8 9 10 11 12 13 14 15 16 17 18 19 20 21 22 23 24 25 26 27 28 29 30 31 32 33 34 35 36 37 38 39 40 41 42 43 44 45 46 47 48 49 50
000
NZUS59 KLOT 181408
HRRLOT

CHICAGO AREA WEATHER ROUNDUP
NATIONAL WEATHER SERVICE CHICAGO/ROMEOVILLE IL
800 AM CST WED JAN 18 2017

NOTE: "FAIR" INDICATES FEW OR NO CLOUDS BELOW 12,000 FEET WITH NO
SIGNIFICANT WEATHER AND/OR OBSTRUCTIONS TO VISIBILITY.

* THESE STATIONS ARE NOT UNDER NWS QUALITY CONTROL. THEY ALSO MAY NOT
  REPORT WEATHER SUCH AS PRECIPITATION OR FOG.

ILZ005-006-012>014-019>023-181500-
NORTHEAST ILLINOIS

CITY           SKY/WX    TMP DP  RH WIND       PRES   REMARKS
OHARE          CLOUDY    34  32  92 W10       30.13R WCI  26
MIDWAY         CLOUDY    33  31  92 W8        30.14R WCI  26
AURORA         CLOUDY    34  32  92 W10       30.14R FOG     WCI  26
LANSING*       CLOUDY    33  33 100 W12       30.15R WCI  25
JOLIET*        CLOUDY    34  34  98 W7        30.16R FOG     WCI  28
WAUKEGAN       CLOUDY    35  33  92 VRB6      30.10R FOG     WCI  30
DUPAGE AIRPORT CLOUDY    33  30  88 W7        30.12R FOG     WCI  27
WHEELING       CLOUDY    34  32  92 W5        30.14R WCI  30
KANKAKEE*      CLOUDY    33  32  96 W9        30.17S WCI  25
MORRIS*        CLOUDY    33  32  95 W10       30.15R FOG     WCI  25
LEWIS AIRPORT* CLOUDY    33  33 100 W9        30.14S FOG     WCI  25
NORTHERLY ISL    N/A     35  32  88 W10         N/A  WCI  27
$$

WIZ051-052-058>065-066-070>072-181500-
SOUTHEAST WISCONSIN

CITY           SKY/WX    TMP DP  RH WIND       PRES   REMARKS
MILWAUKEE      CLOUDY    36  32  85 W13       30.08R
KENOSHA*       CLOUDY    34  32  92 W13       30.10R FOG     WCI  25
RACINE*        CLOUDY    35  32  88 W13       30.11R WCI  26
WAUKESHA       FOG       32  30  93 SW8       30.08R VSB 1/2 WCI  25
WEST BEND      FOG       32  32 100 SW8       30.04F VSB 1/2 WCI  25
$$

INZ001>003-010>013-019-020-181500-
NORTHWEST INDIANA

CITY           SKY/WX    TMP DP  RH WIND       PRES   REMARKS
GARY*          NOT AVBL
MICHIGAN CITY* NOT AVBL
RENSSELAER*    NOT AVBL
VALPARAISO     CLOUDY    35  34  96 W12       30.14R FOG     WCI  27
$$

LMZ740>746-181500-
SOUTHERN LAKE MICHIGAN

STATION/POSITION TIME  SKY/WX   TEMP WIND        PRES    VSBY
                                AIR  DIR/SP/G
                 (UTC)          (F)  (DEG/KT/KT) (MB)    (MI)
HARRISON CRIB    1340            36  270/ 15/ 18   N/A
BURNHAM HARBOR   1400            35  270/  8/ 13   N/A
CALUMET HARBOR   1348            35  240/  7/ 13 1020.0R
BURNS HARBOR     1301            34  260/ 10/ 15 1020.7
MICHIGAN CITY    NOT AVBL
$$

ABBREVIATIONS USED IN REMARKS
   TC - TEMPERATURE IN CELSIUS
  WCI - WIND CHILL INDEX
   HX - HEAT INDEX
  VSB - VISIBILITY
$$



USA.gov is the U.S. government's official web portal to all federal, state and local government web resources and services.